カタログに戻る

ASTRA 5B

運用中通信GEO
NORAD 39617·PAYLOAD·🇱🇺 Luxembourg

打ち上げ Mar 22, 2014 から Guiana Space Centre

Loading…

TLE

最新Source: CelesTrak SupGP

元期: Sep 13, 2026, 23:30 UTC

1 39617C 14011B   26256.97916667  .00000227  00000+0  00000+0 0  2560
2 39617   0.1002 294.7831 0002898 254.7022 179.4753  1.00269513    18

AllMySatでASTRA 5Bをリアルタイム追跡

Download on the App Store